SQ9PDE-13 Weather Reports


time (UTC)temp
C
wind
direction
speed
KPH
gust
KPH
rain 1hr
cm
rain 24hr
cm
rain mn
cm
humidity
%
barometer
mb
20260506165307 21 0.0 0.0 0.00 0.00 0.00 41 1004.1
20260506164903 21 0.0 0.0 0.00 0.00 0.00 43 1004.1
20260506164806 21 0.0 0.0 0.00 0.00 0.00 43 1004.1
20260506164306 21 0.0 0.0 0.00 0.00 0.00 44 1004.4
20260506163805 21 0.0 0.0 0.00 0.00 0.00 44 1004.3
20260506163305 21 0.0 0.0 0.00 0.00 0.00 43 1004.3
20260506162855 22 0.0 0.0 0.00 0.00 0.00 44 1004.2
20260506162804 22 0.0 0.0 0.00 0.00 0.00 44 1004.2
20260506162523 22 0.0 0.0 0.00 0.00 0.00 43 1004.1
20260506162306 22 0.0 0.0 0.00 0.00 0.00 43 1004.1
20260506161340 22 0.0 0.0 0.00 0.00 0.00 41 1003.9
20260506161302 22 0.0 0.0 0.00 0.00 0.00 41 1003.9
20260506160802 23 0.0 0.0 0.00 0.00 0.00 41 1003.8
20260506160301 23 0.0 0.0 0.00 0.00 0.00 40 1003.6
20260506155801 23 0.0 0.0 0.00 0.00 0.00 40 1003.7
20260506155300 23 0.0 0.0 0.00 0.00 0.00 41 1003.8
20260506154800 23 0.0 0.0 0.00 0.00 0.00 39 1003.8
20260506154259 23 0.0 0.0 0.00 0.00 0.00 40 1003.9
20260506153759 24 0.0 0.0 0.00 0.00 0.00 40 1003.8
20260506153258 24 0.0 0.0 0.00 0.00 0.00 40 1003.7
20260506152840 24 0.0 0.0 0.00 0.00 0.00 41 1003.8
20260506152758 24 0.0 0.0 0.00 0.00 0.00 41 1003.8
20260506152328 24 0.0 0.0 0.00 0.00 0.00 41 1003.9
20260506152257 24 0.0 0.0 0.00 0.00 0.00 41 1003.9
20260506151757 25 0.0 0.0 0.00 0.00 0.00 41 1003.8
20260506151256 24 0.0 0.0 0.00 0.00 0.00 41 1003.9
20260506150756 25 0.0 0.0 0.00 0.00 0.00 41 1003.9
20260506150302 24 0.0 0.0 0.00 0.00 0.00 40 1003.9
20260506145755 24 0.0 0.0 0.00 0.00 0.00 42 1004.1
20260506145254 24 0.0 0.0 0.00 0.00 0.00 42 1004.2
20260506144754 24 0.0 0.0 0.00 0.00 0.00 41 1004.3
20260506144326 23 0.0 0.0 0.00 0.00 0.00 41 1004.2
20260506144253 23 0.0 0.0 0.00 0.00 0.00 41 1004.2
20260506143753 24 0.0 0.0 0.00 0.00 0.00 41 1004.3
20260506143252 24 0.0 0.0 0.00 0.00 0.00 40 1004.3
20260506142751 24 0.0 0.0 0.00 0.00 0.00 41 1004.3
20260506142251 23 0.0 0.0 0.00 0.00 0.00 41 1004.5
20260506141751 23 0.0 0.0 0.00 0.00 0.00 40 1004.5
20260506141250 23 0.0 0.0 0.00 0.00 0.00 40 1004.5
20260506140749 23 0.0 0.0 0.00 0.00 0.00 41 1004.5
20260506140249 24 0.0 0.0 0.00 0.00 0.00 40 1004.3
20260506135748 24 0.0 0.0 0.00 0.00 0.00 42 1004.4
20260506135248 24 0.0 0.0 0.00 0.00 0.00 43 1004.4
20260506134747 24 0.0 0.0 0.00 0.00 0.00 43 1004.4
20260506134247 24 0.0 0.0 0.00 0.00 0.00 43 1004.4
20260506133746 23 0.0 0.0 0.00 0.00 0.00 43 1004.6
20260506133246 24 0.0 0.0 0.00 0.00 0.00 44 1004.6
20260506132745 24 0.0 0.0 0.00 0.00 0.00 44 1004.6
20260506132245 25 0.0 0.0 0.00 0.00 0.00 45 1004.4
20260506131744 23 0.0 0.0 0.00 0.00 0.00 46 1004.8
20260506131244 25 0.0 0.0 0.00 0.00 0.00 46 1004.5
20260506130743 23 0.0 0.0 0.00 0.00 0.00 46 1005.0
20260506130243 23 0.0 0.0 0.00 0.00 0.00 46 1004.9
20260506125742 23 0.0 0.0 0.00 0.00 0.00 45 1004.8
20260506125242 23 0.0 0.0 0.00 0.00 0.00 44 1004.8
20260506124824 23 0.0 0.0 0.00 0.00 0.00 45 1004.9
20260506124741 23 0.0 0.0 0.00 0.00 0.00 45 1004.9
20260506124241 23 0.0 0.0 0.00 0.00 0.00 44 1004.9
20260506123740 24 0.0 0.0 0.00 0.00 0.00 44 1004.8
20260506123240 23 0.0 0.0 0.00 0.00 0.00 45 1004.9
20260506122739 23 0.0 0.0 0.00 0.00 0.00 45 1004.9
20260506122238 23 0.0 0.0 0.00 0.00 0.00 45 1004.9
20260506121853 23 0.0 0.0 0.00 0.00 0.00 44 1004.9
20260506121738 23 0.0 0.0 0.00 0.00 0.00 44 1004.9
20260506121246 23 0.0 0.0 0.00 0.00 0.00 45 1004.9
20260506121237 23 0.0 0.0 0.00 0.00 0.00 45 1004.9
20260506120737 24 0.0 0.0 0.00 0.00 0.00 43 1004.8
20260506120236 23 0.0 0.0 0.00 0.00 0.00 45 1004.8
20260506115736 23 0.0 0.0 0.00 0.00 0.00 45 1004.8
20260506115235 23 0.0 0.0 0.00 0.00 0.00 45 1004.8
20260506114735 24 0.0 0.0 0.00 0.00 0.00 45 1004.7
20260506114234 24 0.0 0.0 0.00 0.00 0.00 44 1004.7
20260506113734 23 0.0 0.0 0.00 0.00 0.00 47 1004.9
20260506113233 24 0.0 0.0 0.00 0.00 0.00 45 1004.6
20260506112733 24 0.0 0.0 0.00 0.00 0.00 45 1004.8
20260506112353 23 0.0 0.0 0.00 0.00 0.00 47 1005.0
20260506112232 24 0.0 0.0 0.00 0.00 0.00 46 1004.8
20260506111732 23 0.0 0.0 0.00 0.00 0.00 47 1005.0
20260506111231 24 0.0 0.0 0.00 0.00 0.00 46 1005.0
20260506110731 23 0.0 0.0 0.00 0.00 0.00 48 1005.0
20260506110230 23 0.0 0.0 0.00 0.00 0.00 47 1005.1
20260506105730 23 0.0 0.0 0.00 0.00 0.00 49 1005.3
20260506105229 25 0.0 0.0 0.00 0.00 0.00 49 1004.9
20260506104729 23 0.0 0.0 0.00 0.00 0.00 51 1005.3
20260506104228 23 0.0 0.0 0.00 0.00 0.00 50 1005.3
20260506103728 22 0.0 0.0 0.00 0.00 0.00 50 1005.4
20260506103227 22 0.0 0.0 0.00 0.00 0.00 50 1005.4
20260506102726 22 0.0 0.0 0.00 0.00 0.00 51 1005.5
20260506102226 23 0.0 0.0 0.00 0.00 0.00 49 1005.2
20260506101726 22 0.0 0.0 0.00 0.00 0.00 49 1005.4
20260506101225 23 0.0 0.0 0.00 0.00 0.00 48 1005.1
20260506100724 24 0.0 0.0 0.00 0.00 0.00 48 1005.0
20260506100224 23 0.0 0.0 0.00 0.00 0.00 46 1004.9
20260506095723 22 0.0 0.0 0.00 0.00 0.00 50 1005.3
20260506095223 23 0.0 0.0 0.00 0.00 0.00 48 1004.9
20260506094722 23 0.0 0.0 0.00 0.00 0.00 48 1004.8
20260506094222 23 0.0 0.0 0.00 0.00 0.00 49 1005.1
20260506093721 24 0.0 0.0 0.00 0.00 0.00 49 1005.3
20260506093221 23 0.0 0.0 0.00 0.00 0.00 50 1005.2
20260506092720 23 0.0 0.0 0.00 0.00 0.00 50 1005.4
20260506092220 25 0.0 0.0 0.00 0.00 0.00 49 1005.2
20260506091728 24 0.0 0.0 0.00 0.00 0.00 51 1005.4
20260506091719 24 0.0 0.0 0.00 0.00 0.00 51 1005.4
20260506091219 23 0.0 0.0 0.00 0.00 0.00 51 1005.5
20260506090718 23 0.0 0.0 0.00 0.00 0.00 51 1005.7
20260506090218 24 0.0 0.0 0.00 0.00 0.00 51 1005.5
20260506085717 26 0.0 0.0 0.00 0.00 0.00 50 1005.4
20260506085217 24 0.0 0.0 0.00 0.00 0.00 53 1005.7
20260506084716 25 0.0 0.0 0.00 0.00 0.00 52 1005.5
20260506084216 25 0.0 0.0 0.00 0.00 0.00 54 1005.7
20260506083715 25 0.0 0.0 0.00 0.00 0.00 52 1005.6
20260506083215 25 0.0 0.0 0.00 0.00 0.00 53 1005.6
20260506082714 23 0.0 0.0 0.00 0.00 0.00 56 1006.1
20260506082213 24 0.0 0.0 0.00 0.00 0.00 56 1005.8
20260506081721 22 0.0 0.0 0.00 0.00 0.00 59 1006.2
20260506081713 22 0.0 0.0 0.00 0.00 0.00 59 1006.2
20260506081213 22 0.0 0.0 0.00 0.00 0.00 58 1006.1
20260506080712 22 0.0 0.0 0.00 0.00 0.00 58 1005.9
20260506080218 21 0.0 0.0 0.00 0.00 0.00 61 1006.4
20260506080211 21 0.0 0.0 0.00 0.00 0.00 61 1006.4
20260506073208 22 0.0 0.0 0.00 0.00 0.00 57 1005.9
20260506072708 22 0.0 0.0 0.00 0.00 0.00 59 1005.9
20260506072207 22 0.0 0.0 0.00 0.00 0.00 61 1006.1
20260506071707 21 0.0 0.0 0.00 0.00 0.00 62 1006.3
20260506071206 21 0.0 0.0 0.00 0.00 0.00 63 1006.3
20260506070706 19 0.0 0.0 0.00 0.00 0.00 61 1005.6
20260506070205 21 0.0 0.0 0.00 0.00 0.00 60 1005.9
20260506062201 20 0.0 0.0 0.00 0.00 0.00 63 1006.2
20260506061701 20 0.0 0.0 0.00 0.00 0.00 63 1006.2
20260506061200 20 0.0 0.0 0.00 0.00 0.00 54 1004.8
20260506060659 20 0.0 0.0 0.00 0.00 0.00 63 1006.2
20260506060159 20 0.0 0.0 0.00 0.00 0.00 64 1006.2
20260506051154 16 0.0 0.0 0.00 0.00 0.00 64 1005.2
20260506050753 16 0.0 0.0 0.00 0.00 0.00 64 1005.6
20260506050653 16 0.0 0.0 0.00 0.00 0.00 64 1005.6
20260506050153 17 0.0 0.0 0.00 0.00 0.00 64 1006.3
20260506044753 17 0.0 0.0 0.00 0.00 0.00 71 1005.9
20260506044722 17 0.0 0.0 0.00 0.00 0.00 71 1005.9
20260506044651 17 0.0 0.0 0.00 0.00 0.00 71 1005.9
20260506044226 16 0.0 0.0 0.00 0.00 0.00 70 1005.6
20260506044150 16 0.0 0.0 0.00 0.00 0.00 70 1005.6
20260506043650 16 0.0 0.0 0.00 0.00 0.00 69 1005.6
20260506043149 16 0.0 0.0 0.00 0.00 0.00 68 1005.7
20260506042649 15 0.0 0.0 0.00 0.00 0.00 71 1005.7
20260506042230 14 0.0 0.0 0.00 0.00 0.00 69 1005.7
20260506042148 14 0.0 0.0 0.00 0.00 0.00 69 1005.7
20260506041756 13 0.0 0.0 0.00 0.00 0.00 67 1005.6
20260506041648 13 0.0 0.0 0.00 0.00 0.00 67 1005.6
20260506041147 13 0.0 0.0 0.00 0.00 0.00 66 1005.6
20260506040647 13 0.0 0.0 0.00 0.00 0.00 66 1005.6
20260506040250 13 0.0 0.0 0.00 0.00 0.00 65 1005.5
20260506040147 13 0.0 0.0 0.00 0.00 0.00 65 1005.5
20260506035646 13 0.0 0.0 0.00 0.00 0.00 64 1005.5
20260506035145 13 0.0 0.0 0.00 0.00 0.00 64 1005.5
20260506034645 14 0.0 0.0 0.00 0.00 0.00 63 1005.3
20260506034144 13 0.0 0.0 0.00 0.00 0.00 64 1005.4
20260506033644 13 0.0 0.0 0.00 0.00 0.00 63 1005.3
20260506033220 13 0.0 0.0 0.00 0.00 0.00 64 1005.4
20260506033143 13 0.0 0.0 0.00 0.00 0.00 64 1005.4
20260506032643 13 0.0 0.0 0.00 0.00 0.00 63 1005.3
20260506032149 13 0.0 0.0 0.00 0.00 0.00 63 1005.4
20260506032142 13 0.0 0.0 0.00 0.00 0.00 63 1005.4
20260506031642 13 0.0 0.0 0.00 0.00 0.00 62 1005.3
20260506031141 13 0.0 0.0 0.00 0.00 0.00 62 1005.4
20260506030800 13 0.0 0.0 0.00 0.00 0.00 61 1005.4
20260506030640 13 0.0 0.0 0.00 0.00 0.00 61 1005.4
20260506030227 13 0.0 0.0 0.00 0.00 0.00 61 1005.5
20260506030140 13 0.0 0.0 0.00 0.00 0.00 61 1005.5
20260506025639 13 0.0 0.0 0.00 0.00 0.00 60 1005.4
20260506025139 13 0.0 0.0 0.00 0.00 0.00 60 1005.5
20260506024638 12 0.0 0.0 0.00 0.00 0.00 60 1005.5
20260506024231 12 0.0 0.0 0.00 0.00 0.00 60 1005.6
20260506024146 12 0.0 0.0 0.00 0.00 0.00 60 1005.6
20260506024138 12 0.0 0.0 0.00 0.00 0.00 60 1005.6
20260506023637 12 0.0 0.0 0.00 0.00 0.00 60 1005.7
20260506023137 12 0.0 0.0 0.00 0.00 0.00 59 1005.5
20260506022712 12 0.0 0.0 0.00 0.00 0.00 60 1005.6
20260506022636 12 0.0 0.0 0.00 0.00 0.00 60 1005.6
20260506022136 12 0.0 0.0 0.00 0.00 0.00 59 1005.5
20260506021635 12 0.0 0.0 0.00 0.00 0.00 60 1005.5
20260506021135 12 0.0 0.0 0.00 0.00 0.00 59 1005.5
20260506020634 12 0.0 0.0 0.00 0.00 0.00 60 1005.4
20260506020134 12 0.0 0.0 0.00 0.00 0.00 59 1005.4
20260506015730 12 0.0 0.0 0.00 0.00 0.00 60 1005.4
20260506015633 12 0.0 0.0 0.00 0.00 0.00 60 1005.4
20260506015133 12 0.0 0.0 0.00 0.00 0.00 60 1005.4
20260506014706 13 0.0 0.0 0.00 0.00 0.00 56 1005.3
20260506014632 13 0.0 0.0 0.00 0.00 0.00 56 1005.3
20260506014138 13 0.0 0.0 0.00 0.00 0.00 54 1005.2
20260506014132 13 0.0 0.0 0.00 0.00 0.00 54 1005.2
20260506013640 13 0.0 0.0 0.00 0.00 0.00 54 1005.3
20260506013631 13 0.0 0.0 0.00 0.00 0.00 54 1005.3
20260506013131 13 0.0 0.0 0.00 0.00 0.00 53 1005.3
20260506012630 13 0.0 0.0 0.00 0.00 0.00 53 1005.3
20260506012130 13 0.0 0.0 0.00 0.00 0.00 53 1005.3
20260506011822 13 0.0 0.0 0.00 0.00 0.00 53 1005.3
20260506011741 13 0.0 0.0 0.00 0.00 0.00 53 1005.3
20260506011710 13 0.0 0.0 0.00 0.00 0.00 53 1005.3
20260506011629 13 0.0 0.0 0.00 0.00 0.00 53 1005.3
20260506011129 14 0.0 0.0 0.00 0.00 0.00 53 1005.3
20260506010628 13 0.0 0.0 0.00 0.00 0.00 54 1005.3
20260506010243 13 0.0 0.0 0.00 0.00 0.00 54 1005.3
20260506010127 13 0.0 0.0 0.00 0.00 0.00 54 1005.3
20260506005627 13 0.0 0.0 0.00 0.00 0.00 55 1005.3
20260506005236 13 0.0 0.0 0.00 0.00 0.00 55 1005.4
20260506005126 13 0.0 0.0 0.00 0.00 0.00 55 1005.4
20260506004626 14 0.0 0.0 0.00 0.00 0.00 54 1005.3
20260506004125 14 0.0 0.0 0.00 0.00 0.00 54 1005.4
20260506003625 15 0.0 0.0 0.00 0.00 0.00 52 1005.3
20260506003226 15 0.0 0.0 0.00 0.00 0.00 52 1005.2
20260506003131 15 0.0 0.0 0.00 0.00 0.00 52 1005.2
20260506003124 15 0.0 0.0 0.00 0.00 0.00 52 1005.2
20260506002624 15 0.0 0.0 0.00 0.00 0.00 52 1005.2
20260506002222 15 0.0 0.0 0.00 0.00 0.00 52 1005.2
20260506002123 15 0.0 0.0 0.00 0.00 0.00 52 1005.2
20260506001704 15 0.0 0.0 0.00 0.00 0.00 51 1005.2
20260506001623 15 0.0 0.0 0.00 0.00 0.00 51 1005.2
20260506001122 15 0.0 0.0 0.00 0.00 0.00 51 1005.1
20260506000622 15 0.0 0.0 0.00 0.00 0.00 50 1005.2
20260506000251 15 0.0 0.0 0.00 0.00 0.00 49 1005.2
20260506000154 15 0.0 0.0 0.00 0.00 0.00 49 1005.2
20260506000121 15 0.0 0.0 0.00 0.00 0.00 49 1005.2
20260505235621 15 0.0 0.0 0.00 0.00 0.00 49 1005.3
20260505235120 16 0.0 0.0 0.00 0.00 0.00 49 1005.2
20260505234619 16 0.0 0.0 0.00 0.00 0.00 48 1005.2
20260505234119 16 0.0 0.0 0.00 0.00 0.00 48 1005.2
20260505233850 16 0.0 0.0 0.00 0.00 0.00 48 1005.3
20260505233747 16 0.0 0.0 0.00 0.00 0.00 48 1005.3
20260505233618 16 0.0 0.0 0.00 0.00 0.00 48 1005.3
20260505233118 16 0.0 0.0 0.00 0.00 0.00 48 1005.3
20260505232617 16 0.0 0.0 0.00 0.00 0.00 48 1005.4
20260505232117 16 0.0 0.0 0.00 0.00 0.00 48 1005.4
20260505231616 16 0.0 0.0 0.00 0.00 0.00 48 1005.5
20260505231116 16 0.0 0.0 0.00 0.00 0.00 48 1005.6
20260505230615 16 0.0 0.0 0.00 0.00 0.00 47 1005.6
20260505230115 16 0.0 0.0 0.00 0.00 0.00 47 1005.6
20260505225614 15 0.0 0.0 0.00 0.00 0.00 48 1005.7
20260505225114 15 0.0 0.0 0.00 0.00 0.00 48 1005.8
20260505224613 15 0.0 0.0 0.00 0.00 0.00 47 1005.8
20260505224239 15 0.0 0.0 0.00 0.00 0.00 47 1005.8
20260505224144 15 0.0 0.0 0.00 0.00 0.00 47 1005.8
20260505224113 15 0.0 0.0 0.00 0.00 0.00 47 1005.8
20260505223612 16 0.0 0.0 0.00 0.00 0.00 46 1005.7
20260505223112 16 0.0 0.0 0.00 0.00 0.00 46 1005.8
20260505222611 16 0.0 0.0 0.00 0.00 0.00 45 1005.8
20260505222111 16 0.0 0.0 0.00 0.00 0.00 45 1005.8
20260505221610 16 0.0 0.0 0.00 0.00 0.00 44 1005.8
20260505221110 16 0.0 0.0 0.00 0.00 0.00 43 1005.7
20260505220609 16 0.0 0.0 0.00 0.00 0.00 43 1005.8
20260505220108 16 0.0 0.0 0.00 0.00 0.00 42 1005.8
20260505215608 16 0.0 0.0 0.00 0.00 0.00 42 1005.8
20260505215107 16 0.0 0.0 0.00 0.00 0.00 41 1005.8
20260505214607 16 0.0 0.0 0.00 0.00 0.00 41 1005.8
20260505214106 16 0.0 0.0 0.00 0.00 0.00 41 1005.8
20260505213606 17 0.0 0.0 0.00 0.00 0.00 40 1005.8
20260505213105 16 0.0 0.0 0.00 0.00 0.00 40 1005.8
20260505212605 16 0.0 0.0 0.00 0.00 0.00 40 1005.8
20260505212104 16 0.0 0.0 0.00 0.00 0.00 39 1005.8
20260505211636 16 0.0 0.0 0.00 0.00 0.00 39 1005.8
20260505211604 16 0.0 0.0 0.00 0.00 0.00 39 1005.8
20260505211103 16 0.0 0.0 0.00 0.00 0.00 39 1005.8
20260505210603 16 0.0 0.0 0.00 0.00 0.00 38 1005.8
20260505205602 17 0.0 0.0 0.00 0.00 0.00 38 1005.7
20260505205101 17 0.0 0.0 0.00 0.00 0.00 37 1005.7
20260505204601 17 0.0 0.0 0.00 0.00 0.00 37 1005.7
20260505204100 17 0.0 0.0 0.00 0.00 0.00 37 1005.7
20260505203601 17 0.0 0.0 0.00 0.00 0.00 37 1005.7
20260505203059 17 0.0 0.0 0.00 0.00 0.00 37 1005.6
20260505202559 17 0.0 0.0 0.00 0.00 0.00 36 1005.7
20260505202058 17 0.0 0.0 0.00 0.00 0.00 36 1005.7
20260505201558 17 0.0 0.0 0.00 0.00 0.00 36 1005.6
20260505201057 17 0.0 0.0 0.00 0.00 0.00 35 1005.6
20260505200557 18 0.0 0.0 0.00 0.00 0.00 35 1005.6
20260505200056 18 0.0 0.0 0.00 0.00 0.00 34 1005.6
20260505195555 18 0.0 0.0 0.00 0.00 0.00 34 1005.5
20260505195055 18 0.0 0.0 0.00 0.00 0.00 33 1005.5
20260505194555 18 0.0 0.0 0.00 0.00 0.00 33 1005.5
20260505194054 18 0.0 0.0 0.00 0.00 0.00 32 1005.3
20260505193553 18 0.0 0.0 0.00 0.00 0.00 32 1005.4
20260505193053 18 0.0 0.0 0.00 0.00 0.00 31 1005.4
20260505192553 18 0.0 0.0 0.00 0.00 0.00 31 1005.3
20260505192052 19 0.0 0.0 0.00 0.00 0.00 30 1005.1
20260505191551 19 0.0 0.0 0.00 0.00 0.00 30 1005.1
20260505191051 19 0.0 0.0 0.00 0.00 0.00 29 1005.2
20260505190550 19 0.0 0.0 0.00 0.00 0.00 29 1005.1
20260505190050 20 0.0 0.0 0.00 0.00 0.00 29 1005.1
20260505185549 20 0.0 0.0 0.00 0.00 0.00 28 1005.1
20260505185049 20 0.0 0.0 0.00 0.00 0.00 28 1005.0
20260505184548 20 0.0 0.0 0.00 0.00 0.00 27 1004.9
20260505184048 20 0.0 0.0 0.00 0.00 0.00 27 1004.9
20260505183547 21 0.0 0.0 0.00 0.00 0.00 26 1004.8
20260505183047 21 0.0 0.0 0.00 0.00 0.00 26 1004.8
20260505182546 21 0.0 0.0 0.00 0.00 0.00 26 1004.7
20260505182046 21 0.0 0.0 0.00 0.00 0.00 25 1004.7
20260505181545 21 0.0 0.0 0.00 0.00 0.00 26 1004.7
20260505181045 21 0.0 0.0 0.00 0.00 0.00 25 1004.6
20260505180544 21 0.0 0.0 0.00 0.00 0.00 25 1004.6
20260505180044 22 0.0 0.0 0.00 0.00 0.00 25 1004.5
20260505175543 22 0.0 0.0 0.00 0.00 0.00 25 1004.4
20260505175042 22 0.0 0.0 0.00 0.00 0.00 25 1004.4
20260505174542 22 0.0 0.0 0.00 0.00 0.00 25 1004.2
20260505174041 22 0.0 0.0 0.00 0.00 0.00 25 1004.3
20260505173541 22 0.0 0.0 0.00 0.00 0.00 25 1004.2
20260505173040 23 0.0 0.0 0.00 0.00 0.00 25 1004.2
20260505172540 23 0.0 0.0 0.00 0.00 0.00 25 1004.2
20260505172039 23 0.0 0.0 0.00 0.00 0.00 24 1004.2
20260505171539 23 0.0 0.0 0.00 0.00 0.00 24 1004.1
20260505171038 23 0.0 0.0 0.00 0.00 0.00 25 1004.1
20260505170538 23 0.0 0.0 0.00 0.00 0.00 25 1004.1
20260505170037 23 0.0 0.0 0.00 0.00 0.00 25 1004.1